This is the latest recevied weather packets stored in our database for station/object JA3YAI-13. If no packets are shown the sender has not sent any weather packets the latest 10 day(s).
| Time | Temp. | Humidity | Pressure | Rain* | Wind** | Luminosity | Snow |
|---|---|---|---|---|---|---|---|
| 1777757784 | 17.22° C | 83% | 1002.6 hPa | 0 mm | - | - | - |
| 1777757184 | 16.67° C | 83% | 1002.8 hPa | 0 mm | - | - | - |
| 1777756585 | 16.67° C | 84% | 1003 hPa | 0 mm | - | - | - |
| 1777755985 | 16.67° C | 84% | 1002.7 hPa | 0 mm | - | - | - |
| 1777755384 | 16.67° C | 85% | 1002.6 hPa | 0 mm | - | - | - |
| 1777754784 | 16.67° C | 85% | 1002.9 hPa | 0 mm | - | - | - |
| 1777754183 | 16.11° C | 87% | 1003.2 hPa | 0 mm | - | - | - |
| 1777753585 | 16.11° C | 88% | 1003.2 hPa | 0 mm | - | - | - |
| 1777752984 | 16.11° C | 88% | 1003.1 hPa | 0 mm | - | - | - |
| 1777752384 | 16.11° C | 89% | 1003.2 hPa | 0 mm | - | - | - |
| 1777751784 | 16.11° C | 89% | 1002.9 hPa | 0 mm | - | - | - |
| 1777751185 | 16.11° C | 89% | 1003 hPa | 0 mm | - | - | - |
| 1777750585 | 16.11° C | 88% | 1003.1 hPa | 0 mm | - | - | - |
| 1777749984 | 16.11° C | 88% | 1003 hPa | 0 mm | - | - | - |
| 1777749384 | 15.56° C | 90% | 1003.2 hPa | 0 mm | - | - | - |
| 1777748785 | 16.11° C | 91% | 1003.1 hPa | 0 mm | - | - | - |
| 1777748185 | 16.11° C | 91% | 1003.3 hPa | 0 mm | - | - | - |
| 1777747584 | 16.11° C | 92% | 1003.5 hPa | 0 mm | - | - | - |
| 1777746984 | 16.11° C | 92% | 1003.4 hPa | 0 mm | - | - | - |
| 1777746384 | 16.11° C | 92% | 1003.3 hPa | 0 mm | - | - | - |
| 1777745785 | 16.11° C | 93% | 1003.2 hPa | 0 mm | - | - | - |
| 1777745185 | 16.11° C | 93% | 1003.2 hPa | 0 mm | - | - | - |
| 1777744584 | 15.56° C | 94% | 1003.3 hPa | 0 mm | - | - | - |
| 1777743984 | 15.56° C | 94% | 1003.4 hPa | 0 mm | - | - | - |
| 1777743385 | 15° C | 94% | 1003.4 hPa | 0 mm | - | - | - |
* Rain latest hour (hover to see other rain measurements)
** Current wind speed in m/s (hover to see current wind gust speed)